Weather History for Blair, NE

Change the Weather History Date:

Sunday, December 29, 2013

  Actual Average (KOMA) Record (KOMA)
Temperature  
Mean Temperature 8 °F 24 °F  
Max Temperature 13 °F 33 °F 61 °F (1999)
Min Temperature 3 °F 14 °F -20 °F (1917)
Degree Days  
Heating Degree Days 57 41  
Month to date heating degree days 1126  
Since 1 July heating degree days 2396  
Cooling Degree Days 0 0  
Month to date cooling degree days 0  
Year to date cooling degree days 1113  
Moisture  
Dew Point -11 °F    
Average Humidity 45    
Maximum Humidity 71    
Minimum Humidity 24    
Precipitation  
Precipitation 0.00 in 0.02 in 0.88 in (1906)
Month to date precipitation 0.99  
Year to date precipitation 30.57  
Snow  
Snow 0.00 in 0.20 in - ()
Month to date snowfall 5.8  
Since 1 July snowfall 8.6  
Snow Depth -    
Sea Level Pressure  
Sea Level Pressure 30.27 in    
Wind  
Wind Speed 19 mph (NNW)    
Max Wind Speed 31 mph    
Max Gust Speed 39 mph    
Visibility 10 miles    
Events      
T = Trace of Precipitation, MM = Missing Value Source: NWS Daily Summary

Daily Weather History Graph

Daily Weather History Graph

Search for Another Location

Airport:

Trip Planner

Search our weather history database for the weather conditions in past years. The results will help you decide how hot, cold, wet, or windy it might be!

Date:

Astronomy

Dec. 29, 2013 Rise Set
Actual Time 7:50 AM CST 5:03 PM CST
Civil Twilight 7:18 AM CST 5:34 PM CST
Nautical Twilight 6:44 AM CST 6:09 PM CST
Astronomical Twilight 6:10 AM CST 6:43 PM CST
Moon 4:34 AM CST (12/29) 2:43 PM CST (12/29)
Length of Visible Light 10h 15m
Length of Day
9h 13m
Waning Crescent, 11% of the Moon is Illuminated
Dec 29
Waning Crescent
Jan 1
New
Jan 7
First Quarter
Jan 15
Full
Jan 23
Last Quarter

Hourly Weather History & Observations

Time (CST) Temp. Windchill Dew Point Humidity Pressure Visibility Wind Dir Wind Speed Gust Speed Precip Events Conditions
12:15 AM 13.6 °F -5.2 °F 5.5 °F 70% 30.14 in 10.0 mi NW 23.0 mph 26.5 mph N/A   Overcast
12:35 AM 12.6 °F -7.4 °F 4.1 °F 69% 30.13 in 10.0 mi NW 25.3 mph 33.4 mph N/A   Overcast
12:55 AM 11.8 °F -10.1 °F 3.9 °F 71% 30.13 in 10.0 mi NNW 31.1 mph 34.5 mph N/A   Overcast
1:15 AM 10.9 °F -9.9 °F 2.3 °F 68% 30.14 in 10.0 mi NNW 26.5 mph 36.8 mph N/A   Overcast
1:35 AM 11.1 °F -9.7 °F 2.7 °F 69% 30.14 in 10.0 mi NW 26.5 mph 32.2 mph N/A   Overcast
1:55 AM 10.4 °F -9.1 °F 2.1 °F 69% 30.15 in 10.0 mi NNW 21.9 mph 35.7 mph N/A   Overcast
2:15 AM 10.2 °F -10.5 °F 1.8 °F 69% 30.16 in 10.0 mi NNW 25.3 mph 36.8 mph N/A   Overcast
2:35 AM 9.9 °F -11.4 °F 1.4 °F 69% 30.16 in 10.0 mi NNW 26.5 mph 38.0 mph N/A   Overcast
2:55 AM 10.0 °F -10.8 °F 2.1 °F 70% 30.17 in 10.0 mi NNW 25.3 mph 31.1 mph N/A   Overcast
3:15 AM 10.0 °F -10.8 °F 1.6 °F 69% 30.17 in 10.0 mi NNW 25.3 mph 33.4 mph N/A   Overcast
3:35 AM 10.0 °F -9.1 °F 1.6 °F 69% 30.18 in 10.0 mi NNW 20.7 mph 31.1 mph N/A   Overcast
3:55 AM 9.7 °F -12.0 °F 1.2 °F 69% 30.18 in 10.0 mi NW 27.6 mph 34.5 mph N/A   Overcast
4:15 AM 9.1 °F -11.2 °F -0.4 °F 65% 30.19 in 10.0 mi NW 23.0 mph 33.4 mph N/A   Overcast
4:35 AM 8.2 °F -13.6 °F -1.5 °F 65% 30.20 in 10.0 mi NNW 26.5 mph 35.7 mph N/A   Scattered Clouds
4:55 AM 7.2 °F -16.1 °F -2.2 °F 66% 30.21 in 10.0 mi NNW 29.9 mph 36.8 mph N/A   Clear
5:15 AM 5.9 °F -15.0 °F -4.0 °F 64% 30.23 in 10.0 mi NW 21.9 mph 39.1 mph N/A   Clear
5:35 AM 5.5 °F -15.9 °F -3.8 °F 65% 30.24 in 10.0 mi NNW 23.0 mph 32.2 mph N/A   Clear
5:55 AM 5.0 °F -16.7 °F -4.9 °F 64% 30.25 in 10.0 mi NW 23.0 mph 32.2 mph N/A   Clear
6:15 AM 4.8 °F -16.0 °F -5.3 °F 63% 30.26 in 10.0 mi NNW 20.7 mph 29.9 mph N/A   Clear
6:35 AM 4.8 °F -16.0 °F -6.5 °F 60% 30.28 in 10.0 mi NNW 20.7 mph 28.8 mph N/A   Clear
6:55 AM 4.3 °F -14.5 °F -9.4 °F 53% 30.29 in 10.0 mi NNW 16.1 mph 27.6 mph N/A   Clear
7:15 AM 4.1 °F -17.9 °F -11.4 °F 49% 30.30 in 10.0 mi NW 23.0 mph 29.9 mph N/A   Clear
7:35 AM 3.7 °F -16.4 °F -11.6 °F 49% 30.31 in 10.0 mi NW 18.4 mph 26.5 mph N/A   Clear
7:55 AM 3.2 °F -18.6 °F -13.5 °F 46% 30.32 in 10.0 mi NW 21.9 mph 31.1 mph N/A   Clear
8:15 AM 3.0 °F -17.8 °F -14.8 °F 43% 30.33 in 10.0 mi NNW 19.6 mph 27.6 mph N/A   Clear
8:35 AM 3.2 °F -16.5 °F -14.8 °F 43% 30.32 in 10.0 mi NNW 17.3 mph 25.3 mph N/A   Clear
8:55 AM 3.7 °F -17.9 °F -14.8 °F 42% 30.32 in 10.0 mi NNW 21.9 mph 27.6 mph N/A   Clear
9:15 AM 4.1 °F -17.4 °F -14.8 °F 41% 30.33 in 10.0 mi NNW 21.9 mph 27.6 mph N/A   Clear
9:35 AM 4.6 °F -17.1 °F -14.8 °F 40% 30.33 in 10.0 mi NW 23.0 mph - N/A   Clear
9:55 AM 4.5 °F -15.9 °F -15.9 °F 39% 30.35 in 10.0 mi NW 19.6 mph 26.5 mph N/A   Clear
10:15 AM 4.5 °F -15.9 °F -16.1 °F 38% 30.35 in 10.0 mi NW 19.6 mph 24.2 mph N/A   Clear
10:35 AM 5.9 °F -11.8 °F -15.5 °F 37% 30.37 in 10.0 mi NW 15.0 mph 20.7 mph N/A   Clear
10:55 AM 6.6 °F -10.9 °F -15.7 °F 35% 30.37 in 10.0 mi NNW 15.0 mph 21.9 mph N/A   Clear
11:15 AM 7.5 °F -11.4 °F -15.5 °F 34% 30.37 in 10.0 mi NNW 18.4 mph - N/A   Clear
11:35 AM 8.4 °F -9.2 °F -15.7 °F 33% 30.36 in 10.0 mi NW 16.1 mph - N/A   Clear
11:55 AM 9.1 °F -8.2 °F -14.8 °F 33% 30.35 in 10.0 mi NW 16.1 mph - N/A   Clear
12:15 PM 10.0 °F -4.5 °F -15.2 °F 31% 30.34 in 10.0 mi NNW 11.5 mph 20.7 mph N/A   Clear
12:35 PM 11.3 °F -4.9 °F -15.9 °F 29% 30.33 in 10.0 mi NNW 15.0 mph 24.2 mph N/A   Clear
12:55 PM 11.7 °F -4.4 °F -15.9 °F 28% 30.33 in 10.0 mi NNW 15.0 mph 21.9 mph N/A   Clear
1:15 PM 11.8 °F -6.3 °F -17.3 °F 26% 30.32 in 10.0 mi North 19.6 mph 27.6 mph N/A   Clear
1:35 PM 12.4 °F -5.1 °F -15.3 °F 28% 30.32 in 10.0 mi NNW 18.4 mph 21.9 mph N/A   Clear
1:55 PM 12.4 °F -3.5 °F -16.6 °F 26% 30.31 in 10.0 mi North 15.0 mph 23.0 mph N/A   Clear
2:15 PM 12.7 °F -3.6 °F -17.3 °F 25% 30.30 in 10.0 mi NNW 16.1 mph 23.0 mph N/A   Clear
2:35 PM 13.1 °F -2.0 °F -17.0 °F 25% 30.30 in 10.0 mi NNW 13.8 mph 19.6 mph N/A   Clear
2:55 PM 12.9 °F -2.2 °F -17.7 °F 24% 30.30 in 10.0 mi NNW 13.8 mph - N/A   Clear
3:15 PM 13.1 °F -1.4 °F -17.3 °F 25% 30.30 in 10.0 mi NNW 12.7 mph - N/A   Clear
3:35 PM 12.9 °F -2.2 °F -17.0 °F 25% 30.31 in 10.0 mi NW 13.8 mph 18.4 mph N/A   Clear
3:55 PM 12.4 °F -0.8 °F -16.6 °F 26% 30.31 in 10.0 mi NW 10.4 mph - N/A   Clear
4:15 PM 12.2 °F -1.0 °F -16.4 °F 27% 30.31 in 10.0 mi NW 10.4 mph - N/A   Clear
4:35 PM 11.5 °F -2.7 °F -16.4 °F 28% 30.31 in 10.0 mi NNW 11.5 mph - N/A   Clear
4:55 PM 10.4 °F -0.4 °F -16.4 °F 29% 30.31 in 10.0 mi NW 6.9 mph - N/A   Clear
5:15 PM 9.3 °F -1.7 °F -16.1 °F 31% 30.30 in 10.0 mi NNW 6.9 mph - N/A   Clear
5:35 PM 8.2 °F -0.3 °F -15.7 °F 33% 30.30 in 10.0 mi NW 4.6 mph - N/A   Clear
5:55 PM 7.2 °F - -15.7 °F 35% 30.30 in 10.0 mi Calm Calm - N/A   Clear
6:15 PM 6.8 °F -2.0 °F -15.7 °F 35% 30.30 in 10.0 mi NW 4.6 mph - N/A   Clear
6:35 PM 6.6 °F -0.3 °F -15.3 °F 36% 30.30 in 10.0 mi NW 3.5 mph - N/A   Clear
6:55 PM 6.1 °F -0.9 °F -15.2 °F 37% 30.29 in 10.0 mi WNW 3.5 mph - N/A   Clear
7:15 PM 6.3 °F -0.7 °F -14.8 °F 38% 30.30 in 10.0 mi WNW 3.5 mph - N/A   Clear
7:35 PM 5.9 °F - -14.8 °F 38% 30.30 in 10.0 mi Calm Calm - N/A   Clear
7:55 PM 5.4 °F -1.7 °F -14.8 °F 39% 30.29 in 10.0 mi NNW 3.5 mph - N/A   Clear
8:15 PM 5.9 °F -1.1 °F -14.3 °F 39% 30.29 in 10.0 mi NNW 3.5 mph - N/A   Clear
8:35 PM 6.4 °F -0.5 °F -14.3 °F 38% 30.28 in 10.0 mi NNE 3.5 mph - N/A   Clear
8:55 PM 5.9 °F -1.1 °F -13.9 °F 40% 30.28 in 10.0 mi NNE 3.5 mph - N/A   Clear
9:15 PM 6.3 °F -0.7 °F -15.2 °F 37% 30.27 in 10.0 mi NE 3.5 mph - N/A   Clear
9:35 PM 5.5 °F - -13.9 °F 41% 30.26 in 10.0 mi Calm Calm - N/A   Clear
9:55 PM 5.5 °F -1.5 °F -13.9 °F 41% 30.26 in 10.0 mi ENE 3.5 mph - N/A   Clear
10:15 PM 5.0 °F - -13.0 °F 43% 30.26 in 10.0 mi Calm Calm - N/A   Clear
10:35 PM 4.8 °F -2.3 °F -11.6 °F 47% 30.26 in 10.0 mi East 3.5 mph - N/A   Clear
10:55 PM 4.6 °F -2.5 °F -11.6 °F 47% 30.26 in 10.0 mi East 3.5 mph - N/A   Clear
11:15 PM 4.1 °F - -11.2 °F 49% 30.26 in 10.0 mi Calm Calm - N/A   Clear
11:35 PM 3.9 °F - -10.7 °F 51% 30.25 in 10.0 mi Calm Calm - N/A   Clear
11:55 PM 3.9 °F - -10.8 °F 51% 30.25 in 10.0 mi Calm Calm - N/A   Clear